Starlink 2468

operational
NORAD ID: 48127 Int'l Des: 2021-027 Owner: SPXS Country: US Constellation: starlink
LEOCIRCULAR

关于 Starlink 2468

正在加载描述...

实时位置

正在加载3D地球...

即将过境

高度历史

Altitude vs Time

uPlot chart will show altitude changes over time

两行轨道根数

1 48127U 21027AM 26061.58796365 .00001204 00000-0 52771-4 0 9991
2 48127 53.1631 198.3909 0001174 108.6267 251.4862 15.30198339271421
Epoch: Mar 2, 2026 • Age: 38 hours

当前状态

高度 477.7 km
速度 7.63 km/s
星下点 36.06°N, 142.14°W
发射日期 Apr 7, 2021
运行时间 4.9 years
类型 internet

技术详情

分类 Payload
质量 260.00 kg
干质量 248.00 kg
总质量 260.00 kg
长度 0.20 m
直径 2.80 m
跨度 9.00 m
形状 Box + pan
制造商 SPXS
平台类型 Starlink
阶段状态 In Orbit
所有者/国家 SPXS/US

大型星座

Loading constellations...